Regional Weather Roundup
Issued by NWS

Home | Current Version | Previous Version | Graphics & Text | Print | Product List | Glossary On
Versions: 1 2 3 4 5 6 7 8 9 10 11 12 13 14 15 16 17 18 19 20 21 22 23 24 25 26 27
000
ASUS45 KBOU 221207
RWRCO

WEATHER ROUNDUP FOR COLORADO
NATIONAL WEATHER SERVICE DENVER/BOULDER CO
500 AM MST WED FEB 22 2017

NOTE: "FAIR" INDICATES FEW OR NO CLOUDS BELOW 12000 FEET WITH NO
SIGNIFICANT WEATHER AND/OR OBSTRUCTIONS TO VISIBILITY.

COZ001>005-013-030-031-221300-
...NORTHWEST COLORADO...

CITY           SKY/WX    TMP DP  RH WIND       PRES   REMARKS
CRAIG          FLURRIES  32  25  75 CALM      29.99F
HAYDEN         MOCLDY    30  21  69 SW5       29.97F WCI  25
MEEKER         CLOUDY    44  30  57 SW13      29.94F
MOUNT WERNER   NOT AVBL
STEAMBOAT SPGS CLOUDY    29  25  86 CALM      29.97F
WALDEN         NOT AVBL
$$

COZ006>008-011-221300-
...WEST CENTRAL VALLEYS...

CITY           SKY/WX    TMP DP  RH WIND       PRES   REMARKS
GRAND JUNCTION FAIR      39  33  79 NE6       29.96S
MONTROSE       FAIR      43  25  49 CALM      30.03F
EAGLE          MOCLDY    42  25  50 W8        29.97S
RIFLE          FAIR      46  31  55 CALM      29.94F
DELTA          FAIR      52  32  46 SW15G21   30.00F
NUCLA          FAIR      45  32  61 E3        30.09F
$$

COZ017>023-064>068-221300-
...SOUTHWEST COLORADO...

CITY           SKY/WX    TMP DP  RH WIND       PRES   REMARKS
DURANGO        FAIR      35  30  82 CALM      30.13F
CORTEZ         FAIR      36  33  89 NE6       30.10F
PAGOSA SPRINGS FAIR      32  32  99 CALM      30.17S
TELLURIDE      FAIR      38  15  38 SW10G21   30.15F
WOLF CREEK PAS SNOW      23  23 100 SW25G35   30.22S VSB 1/2 WCI   7
$$

COZ009-010-012-014-032>034-037-058>063-221300-
...CENTRAL COLORADO...

CITY           SKY/WX    TMP DP  RH WIND       PRES   REMARKS
ASPEN          FAIR      37  19  48 CALM      29.99F
BUENA VISTA    FAIR      42   8  24 W13G23    30.01F
COPPER MTN     LGT SNOW  28  12  50 MISG      30.05S
BERTHOUD PASS  MOCLDY    19  10  68 W33G56    30.00S WCI   0
COTTONWOOD PAS FAIR      36   5  27 SW9G21    30.05S
GUNNISON       FAIR      39  18  42 W15       30.05F
KREMMLING      CLOUDY    45  23  42 W20G26    29.94F
LEADVILLE      FAIR      30   8  39 W5        30.01F WCI  25
MONARCH PASS   FAIR      23  12  63 W45       30.19F WCI   2
SALIDA         FAIR      40  23  49 SW9       30.10F
SUNLIGHT       NOT AVBL
WILKERSON PASS FAIR      27  10  50 SW15G28   30.06S WCI  15
$$

COZ069>075-221300-
...SAN LUIS VALLEY/SANGRE DE CRISTO MOUNTAINS...

CITY           SKY/WX    TMP DP  RH WIND       PRES   REMARKS
ALAMOSA        FAIR      36  30  79 SE10      30.09S
LA VETA PASS   FAIR      32  27  80 N14G22    30.16F WCI  22
SAGUACHE       FAIR      28  23  80 NE5       30.07F WCI  23
$$

COZ035-036-038>040-221300-
...NORTHERN COLORADO FRONT RANGE...

CITY           SKY/WX    TMP DP  RH WIND       PRES   REMARKS
DENVER INTL AP FAIR      44  16  32 W7        29.85S
DMNS CITY PARK   N/A     45  17  31 SW6       29.85S
AURORA         MOCLDY    48  17  29 SW14      29.86F
FRONT RANGE AP FAIR      46  19  34 SW16      29.86F
ERIE MUNI ARPT FAIR      32  17  53 S5        29.84F WCI  28
BOULDER MUN AP FAIR      50  18  27 W7        29.84F
CENTENNIAL     FAIR      48  17  29 S15       29.87S
BROOMFIELD     FAIR      46  14  27 CALM      29.86S
FORT COLLINS   FAIR      41  26  55 NE12      29.86S
LONGMONT       FAIR      55  16  22 SW10G17   29.85F
$$

COZ041-046-047-076>085-087-088-221300-
...PIKES PEAK/PALMER DIVIDE AND SOUTHERN FOOTHILLS...

CITY           SKY/WX    TMP DP  RH WIND       PRES   REMARKS
COLO. SPRINGS  FAIR      50  19  29 W14       29.96S
A. F. ACADEMY  FAIR      44  14  30 SW8       29.94F
SCHRIEVER AFB  FAIR      48  20  32 W20       29.94S
ELLICOTT       FAIR     N/A N/A N/A CALM      29.92F
FALCON         FAIR      42  19  40 W13       29.96F
FORT CARSON    FAIR      50  21  32 W14       29.93S
LIMON          FAIR      52  13  21 W18G32    29.85R
MONUMENT HILL  FAIR      43  18  36 W12G21    29.95S
TRINIDAD       FAIR      52  26  36 SW22      29.94F
$$

COZ042>045-048>051-090-091-221300-
...NORTHEAST COLORADO...

CITY           SKY/WX    TMP DP  RH WIND       PRES   REMARKS
GREELEY ARPT   FAIR      39  25  57 N15       29.87S
AKRON          FAIR      37  26  64 N12       29.88R
BURLINGTON     FAIR      38  18  44 SW10      29.84S
WRAY           NOT AVBL
STERLING       FAIR      39  32  75 NW3       29.84S
HOLYOKE        FAIR      34  21  60 CALM      29.86S
FORT MORGAN    FAIR      40  26  56 N23G30    29.85F
$$

COZ086-089-092>099-221300-
...SOUTHEAST COLORADO...

CITY           SKY/WX    TMP DP  RH WIND       PRES   REMARKS
PUEBLO         FAIR      46  23  40 W3        29.90S
LA JUNTA       FAIR      47  23  38 W9        29.88S
LAMAR          FAIR      37  15  40 CALM      29.84F
SPRINGFIELD      N/A     51  21  30 W15       29.88F
$$




USA.gov is the U.S. government's official web portal to all federal, state and local government web resources and services.